Tracking 17264 objects as of 2-September-2015
HD Live streaming from Space Station

ARTEMIS

Track ARTEMIS now!
ARTEMIS is classified as:


NORAD ID: 26863
Int'l Code: 2001-029A
Perigee: 35,778.0 km
Apogee: 35,810.0 km
Inclination: 11.9 °
Period: 1,436.1 minutes
Semi major axis: 42165 km
RCS: 10 m2 (large)
Launch date: July 12, 2001
Source: European Space Agency (ESA)

An 18-month rescue mission recovered the satellite; develop European capabilities in satellite communications; test new technologies; support development of European navigation system (EGNOS, c. 2010).
Your satellite tracking list
Your tracking list is empty





NASA's NSSDC Master Catalog

Two Line Element Set (TLE):
1 26863U 01029A   15242.07317941  .00000094  00000-0  00000+0 0  9995
2 26863 011.9381 040.1935 0003799 164.7048 180.8060 01.00270826 52848

Source of the keplerian elements: AFSPC

N2YO: 290